"2016-04-19 00:00:00",1559451,4.633,232.3,6.675,1.376,6.396,101.4053,2.885,4.032,59.44,0,110.1,13.07,3.65,194.3
"2016-04-19 00:00:30",1559452,5.342,243.5,8.43,1.468,8.06,101.4086,2.893,4.088,60.46,0,110.1,13.06,3.66,205.5
"2016-04-19 00:01:00",1559453,4.603,239.1,5.742,1.237,6.417,101.4129,2.905,4.031,60.92,0,110.1,13.07,3.67,201.1
"2016-04-19 00:01:30",1559454,5.616,233.1,10.16,1.38,7.988,101.4149,2.91,4.019,60.86,0,110.1,13.07,3.67,195.1
"2016-04-19 00:02:00",1559455,5.204,246.5,11.35,1.434,7.151,101.4158,2.912,4.085,60.7,0,110.1,13.07,3.67,208.5
"2016-04-19 00:02:30",1559456,5.484,247.4,9.97,1.413,8.11,101.4144,2.908,4.067,60.41,0,110.1,13.07,3.67,209.4
"2016-04-19 00:03:00",1559457,5.382,241.1,7.43,1.465,7.164,101.4141,2.907,4.027,60.18,0,110.1,13.07,3.67,203.1
"2016-04-19 00:03:30",1559458,5.822,249.9,8.03,1.496,7.755,101.4104,2.898,4.108,60.02,0,110.1,13.07,3.66,211.9
"2016-04-19 00:04:00",1559459,5.859,246.5,8.85,1.527,7.668,101.4087,2.894,4.052,59.92,0,110.1,13.07,3.66,208.5
"2016-04-19 00:04:30",1559460,6.454,237.1,8.27,1.5,7.354,101.4053,2.885,4.055,60.23,0,110.1,13.07,3.65,199.1
"2016-04-19 00:05:00",1559461,6.502,240.1,7.532,1.362,6.733,101.402,2.877,4.061,60.31,0,110.1,13.07,3.64,202.1
"2016-04-19 00:05:30",1559462,6.203,238.3,9.21,1.464,7.332,101.398,2.866,4.041,60.42,0,110.1,13.07,3.63,200.3
"2016-04-19 00:06:00",1559463,6.544,248.8,9.19,1.337,8.46,101.3904,2.847,4.111,60.36,0,110.1,13.07,3.61,210.8
"2016-04-19 00:06:30",1559464,5.253,237.5,7.223,1.349,6.527,101.3884,2.842,3.969,60.26,0,110.1,13.07,3.60,199.5
"2016-04-19 00:07:00",1559465,5.665,253.5,6.571,1.253,8.15,101.3884,2.842,4.042,60.09,0,110.1,13.07,3.60,215.5
"2016-04-19 00:07:30",1559466,6.055,255.7,6.939,1.24,7.387,101.3884,2.842,4.032,59.82,0,110.1,13.07,3.60,217.7
"2016-04-19 00:08:00",1559467,5.865,246.4,7.338,1.442,6.411,101.3884,2.842,3.933,59.82,0,110.2,13.07,3.60,208.4
"2016-04-19 00:08:30",1559468,5.747,241.3,10.27,1.368,7.031,101.3884,2.842,4.01,60.28,0,110.1,13.08,3.60,203.3
"2016-04-19 00:09:00",1559469,6.081,242.2,6.775,1.626,8.3,101.3864,2.837,4.028,60.16,0,110.1,13.08,3.60,204.2
"2016-04-19 00:09:30",1559470,4.844,246.3,6.782,1.434,7.642,101.3783,2.816,4.038,60.02,0,110.1,13.08,3.58,208.3
"2016-04-19 00:10:00",1559471,5.364,243.8,7.805,1.523,7.544,101.3678,2.789,3.97,59.66,0,110.1,13.08,3.55,205.8
"2016-04-19 00:10:30",1559472,3.971,240.1,10.37,1.105,6.135,101.3678,2.789,3.985,59.82,0,110.1,13.08,3.55,202.1
"2016-04-19 00:11:00",1559473,4.811,245.7,7.863,1.318,6.683,101.3596,2.768,3.988,59.84,0,110.1,13.08,3.53,207.7
"2016-04-19 00:11:30",1559474,5.087,240.9,7.334,1.551,7.412,101.3557,2.758,4.027,59.95,0,110.1,13.08,3.52,202.9
"2016-04-19 00:12:00",1559475,5.509,242.8,8.28,1.373,7.854,101.3545,2.756,3.97,59.7,0,110.1,13.08,3.52,204.8
"2016-04-19 00:12:30",1559476,4.981,231.8,5.416,1.399,6.855,101.3545,2.756,3.968,59.61,0,110.1,13.08,3.52,193.8
"2016-04-19 00:13:00",1559477,4.869,233.6,9.87,1.473,7.495,101.3548,2.756,3.978,59.58,0,110.1,13.08,3.52,195.6
"2016-04-19 00:13:30",1559478,4.711,245.1,10.6,1.314,6.704,101.3545,2.756,3.878,59.46,0,110.1,13.08,3.52,207.1
"2016-04-19 00:14:00",1559479,4.034,248.7,7.51,1.347,6.151,101.3545,2.756,3.919,59.46,0,110.1,13.08,3.52,210.7
"2016-04-19 00:14:30",1559480,4.392,258.9,6.279,1.41,6.886,101.3545,2.756,3.901,59.43,0,110.1,13.08,3.52,220.9
"2016-04-19 00:15:00",1559481,5.718,264.9,10.15,1.334,7.787,101.3563,2.76,3.903,59.76,0,110.1,13.08,3.52,226.9
"2016-04-19 00:15:30",1559482,5.585,253.7,7.481,1.571,6.994,101.3548,2.756,3.906,59.58,0,110.1,13.08,3.52,215.7
"2016-04-19 00:16:00",1559483,5.62,248,7.702,1.402,7.091,101.3549,2.756,3.966,59.36,0,110.1,13.08,3.52,210.0
"2016-04-19 00:16:30",1559484,4.752,247.4,7.299,1.343,6.136,101.3577,2.764,3.978,59.93,0,110.1,13.08,3.53,209.4
"2016-04-19 00:17:00",1559485,5.541,241.5,7.472,1.522,7.555,101.3614,2.773,3.945,60.29,0,110.1,13.08,3.53,203.5
"2016-04-19 00:17:30",1559486,5.481,237.7,7.44,1.405,7.479,101.364,2.78,3.928,60.28,0,110.1,13.07,3.54,199.7
"2016-04-19 00:18:00",1559487,4.506,236.5,6.321,1.199,6.714,101.3637,2.779,3.965,60.25,0,110.1,13.07,3.54,198.5
"2016-04-19 00:18:30",1559488,5.381,230.8,12.88,1.408,7.028,101.3649,2.782,3.929,60.09,0,110.1,13.07,3.54,192.8
"2016-04-19 00:19:00",1559489,5.435,241.2,7.218,1.45,6.426,101.3637,2.779,3.887,59.7,0,110.1,13.07,3.54,203.2
"2016-04-19 00:19:30",1559490,6.124,239.5,9.01,1.567,7.659,101.3669,2.787,3.992,59.37,0,110.1,13.07,3.55,201.5
"2016-04-19 00:20:00",1559491,5.524,228.9,5.954,1.246,7.185,101.3666,2.786,3.984,59.18,0,110.1,13.07,3.55,190.9
"2016-04-19 00:20:30",1559492,5.731,238.4,10.18,1.705,7.632,101.3697,2.794,3.978,59.13,0,110.1,13.07,3.56,200.4
"2016-04-19 00:21:00",1559493,6.28,237.1,8.19,1.446,6.978,101.3708,2.797,3.938,59.4,0,110.1,13.07,3.56,199.1
"2016-04-19 00:21:30",1559494,6.674,240.6,8.21,1.446,7.068,101.3728,2.802,3.943,59.64,0,110.1,13.07,3.56,202.6
"2016-04-19 00:22:00",1559495,5.869,240.4,10.86,1.785,7.549,101.3762,2.811,4.019,59.81,0,110.1,13.07,3.57,202.4
"2016-04-19 00:22:30",1559496,6.093,251.7,7.559,1.474,7.288,101.3777,2.815,3.982,60.03,0,110.1,13.07,3.58,213.7
"2016-04-19 00:23:00",1559497,6.123,244.9,7.905,1.431,7.752,101.3782,2.816,4.069,60.05,0,110.1,13.07,3.58,206.9
"2016-04-19 00:23:30",1559498,6.076,244,8.12,1.42,6.882,101.3794,2.819,3.932,59.64,0,110.1,13.07,3.58,206.0
"2016-04-19 00:24:00",1559499,6.361,249.7,7.632,1.549,8.2,101.378,2.815,4.117,59.38,0,110.1,13.08,3.58,211.7
"2016-04-19 00:24:30",1559500,6.317,250.7,5.502,1.371,7.003,101.3792,2.818,3.924,58.75,0,110.1,13.08,3.58,212.7
"2016-04-19 00:25:00",1559501,6.879,259.2,7.871,1.564,7.794,101.38,2.821,4.055,58.79,0,110.1,13.08,3.58,221.2
"2016-04-19 00:25:30",1559502,6.77,252.7,7.988,1.432,7.931,101.382,2.826,3.971,59.29,0,110,13.08,3.59,214.7
"2016-04-19 00:26:00",1559503,6.952,251.5,6.944,1.385,7.896,101.384,2.831,4.012,59.35,0,110.1,13.08,3.59,213.5
"2016-04-19 00:26:30",1559504,6.362,249.2,6.708,1.412,7.396,101.3758,2.81,3.951,58.91,0,110.1,13.08,3.57,211.2
"2016-04-19 00:27:00",1559505,5.598,239.2,8.18,1.501,6.697,101.3696,2.794,3.955,58.75,0,110.1,13.08,3.56,201.2
"2016-04-19 00:27:30",1559506,6.469,244.6,7.882,1.457,7.406,101.364,2.78,3.968,58.71,0,110.1,13.08,3.54,206.6
"2016-04-19 00:28:00",1559507,6.058,250.7,8.73,1.33,7.111,101.3569,2.762,3.97,58.71,0,110.1,13.08,3.52,212.7
"2016-04-19 00:28:30",1559508,6.198,252,7.286,1.386,8.07,101.3516,2.748,4.019,58.59,0,110,13.08,3.51,214.0
"2016-04-19 00:29:00",1559509,6.622,250.5,6.828,1.476,7.68,101.3539,2.754,3.873,58.77,0,110.1,13.08,3.52,212.5
"2016-04-19 00:29:30",1559510,6.09,242.7,7.335,1.292,7.523,101.3536,2.753,3.933,58.99,0,110.1,13.08,3.51,204.7
"2016-04-19 00:30:00",1559511,6.33,237.6,6.474,1.375,6.371,101.3547,2.756,3.926,59.05,0,110,13.08,3.52,199.6
"2016-04-19 00:30:30",1559512,6.94,247.8,7.991,1.429,7.97,101.3505,2.745,3.958,59.06,0,110,13.08,3.51,209.8
"2016-04-19 00:31:00",1559513,7.474,245.8,7.325,1.464,8.42,101.3375,2.712,3.962,58.88,0,110,13.08,3.47,207.8
"2016-04-19 00:31:30",1559514,6.792,243,8.07,1.41,7.726,101.3225,2.674,3.899,58.77,0,110,13.08,3.44,205.0
"2016-04-19 00:32:00",1559515,6.827,237,7.566,1.439,7.861,101.3211,2.67,3.876,58.83,0,110,13.08,3.43,199.0
"2016-04-19 00:32:30",1559516,7.049,241.1,7.231,1.391,7.86,101.3166,2.659,3.846,58.98,0,110,13.08,3.42,203.1
"2016-04-19 00:33:00",1559517,7.505,249.1,9.29,1.408,8.18,101.3028,2.623,3.866,59.11,0,110,13.08,3.38,211.1
"2016-04-19 00:33:30",1559518,7.701,250.6,8.32,1.406,8.61,101.2878,2.585,3.88,58.79,0,110,13.08,3.35,212.6
"2016-04-19 00:34:00",1559519,7.684,246.9,7.239,1.371,8.39,101.2853,2.579,3.874,58.82,0,110,13.08,3.34,208.9
"2016-04-19 00:34:30",1559520,7.107,244.5,6.665,1.41,8.18,101.2737,2.549,3.841,58.91,0,110,13.07,3.31,206.5
"2016-04-19 00:35:00",1559521,5.941,237.2,5.996,1.172,6.455,101.2545,2.5,3.689,58.77,0,110,13.08,3.26,199.2
"2016-04-19 00:35:30",1559522,7.054,244.3,7.998,1.352,7.898,101.2534,2.497,3.772,59.13,0,110,13.08,3.26,206.3
"2016-04-19 00:36:00",1559523,7.028,250.6,7.733,1.41,8.55,101.248,2.484,3.798,59.88,0,110,13.08,3.24,212.6
"2016-04-19 00:36:30",1559524,7.409,247.2,6.503,1.313,8.93,101.2277,2.432,3.757,60.18,0,110,13.08,3.19,209.2
"2016-04-19 00:37:00",1559525,6.903,247.3,7.918,1.296,7.364,101.2195,2.411,3.708,60.24,0,110,13.08,3.17,209.3
"2016-04-19 00:37:30",1559526,7.067,248.9,6.495,1.504,7.409,101.2195,2.411,3.597,60.62,0,110,13.08,3.17,210.9
"2016-04-19 00:38:00",1559527,7.126,250.1,7.484,1.413,7.607,101.2113,2.39,3.658,60.76,0,110,13.08,3.15,212.1
"2016-04-19 00:38:30",1559528,7.725,244.9,8.67,1.489,7.3,101.2012,2.364,3.606,60.62,0,110,13.08,3.12,206.9
"2016-04-19 00:39:00",1559529,8.82,249.8,7.316,1.4,8.75,101.1916,2.34,3.679,60.94,0,110,13.08,3.10,211.8
"2016-04-19 00:39:30",1559530,8.82,247,7.122,1.272,8.59,101.1908,2.338,3.665,60.98,0,110,13.08,3.10,209.0
"2016-04-19 00:40:00",1559531,8.4,252.2,8.02,1.442,8.49,101.1815,2.314,3.646,61.09,0,110,13.09,3.07,214.2
"2016-04-19 00:40:30",1559532,7.577,247.2,9.81,1.588,8.24,101.1655,2.273,3.548,60.52,0,110,13.09,3.03,209.2
"2016-04-19 00:41:00",1559533,7.02,250.8,7.333,1.569,7.423,101.1703,2.285,3.515,60.22,0,110,13.09,3.05,212.8
"2016-04-19 00:41:30",1559534,7.476,250.2,6.9,1.396,7.375,101.1669,2.277,3.514,60.46,0,110,13.09,3.04,212.2
"2016-04-19 00:42:00",1559535,7.568,254.2,8.19,1.428,8.26,101.1579,2.254,3.543,60.97,0,110,13.1,3.01,216.2
"2016-04-19 00:42:30",1559536,7.938,248.3,6.855,1.406,8.41,101.1441,2.219,3.527,60.83,0,110,13.1,2.98,210.3
"2016-04-19 00:43:00",1559537,8.05,245.7,7.284,1.364,7.846,101.1447,2.22,3.432,60.48,0,110,13.1,2.98,207.7
"2016-04-19 00:43:30",1559538,8.25,250.4,7.595,1.487,8.25,101.1439,2.218,3.481,60.42,0,110,13.1,2.98,212.4
"2016-04-19 00:44:00",1559539,8.13,252.4,6.701,1.481,7.934,101.1366,2.199,3.431,60.69,0,110,13.1,2.96,214.4
"2016-04-19 00:44:30",1559540,8.4,251.6,6.73,1.284,8.23,101.1242,2.168,3.424,60.88,0,110,13.1,2.93,213.6
"2016-04-19 00:45:00",1559541,8.69,251.8,7.123,1.355,8.57,101.1183,2.153,3.43,60.87,0,110,13.1,2.91,213.8
"2016-04-19 00:45:30",1559542,8.67,248.2,7.492,1.35,8.66,101.1183,2.153,3.446,60.86,0,110,13.1,2.91,210.2
"2016-04-19 00:46:00",1559543,8.13,249.6,7.291,1.38,7.524,101.1174,2.15,3.317,60.81,0,110,13.1,2.91,211.6
"2016-04-19 00:46:30",1559544,8.41,248.5,7.128,1.412,7.335,101.1073,2.124,3.337,60.95,0,110,13.1,2.88,210.5
"2016-04-19 00:47:00",1559545,7.958,247.5,6.713,1.448,7.694,101.1007,2.108,3.346,61.22,0,110,13.1,2.87,209.5
"2016-04-19 00:47:30",1559546,8.63,247.8,6.882,1.451,8.23,101.0886,2.077,3.37,61.22,0,110,13.1,2.84,209.8
"2016-04-19 00:48:00",1559547,9.12,247.6,7.083,1.336,8.41,101.0844,2.066,3.377,61.35,0,110,13.1,2.83,209.6
"2016-04-19 00:48:30",1559548,9.56,249.4,6.812,1.218,8.79,101.0844,2.066,3.374,61.46,0,109.9,13.1,2.83,211.4
"2016-04-19 00:49:00",1559549,9.5,250.2,6.533,1.266,9.11,101.0844,2.066,3.358,61.54,0,109.9,13.1,2.83,212.2
"2016-04-19 00:49:30",1559550,9.43,251.3,6.633,1.288,8.77,101.0799,2.055,3.406,61.57,0,109.9,13.1,2.81,213.3
"2016-04-19 00:50:00",1559551,8.88,248.2,7.226,1.374,8.46,101.0739,2.039,3.336,61.59,0,110,13.1,2.80,210.2
"2016-04-19 00:50:30",1559552,9.09,245.4,7.105,1.396,8.12,101.0723,2.035,3.304,61.6,0,109.9,13.1,2.79,207.4
"2016-04-19 00:51:00",1559553,8.92,245.2,7.348,1.436,8.23,101.0712,2.032,3.326,61.68,0,110,13.1,2.79,207.2
"2016-04-19 00:51:30",1559554,8.55,243.4,7.923,1.488,7.33,101.0624,2.01,3.243,61.67,0,109.9,13.1,2.77,205.4
"2016-04-19 00:52:00",1559555,8.66,242.5,7.007,1.445,7.217,101.063,2.012,3.253,61.76,0,109.9,13.1,2.77,204.5
"2016-04-19 00:52:30",1559556,9.65,246.3,7.404,1.371,8.39,101.0662,2.02,3.267,61.78,0,109.9,13.1,2.78,208.3
"2016-04-19 00:53:00",1559557,9.2,244.1,7.208,1.375,8.3,101.0676,2.023,3.282,61.75,0,109.9,13.1,2.78,206.1
"2016-04-19 00:53:30",1559558,9.56,245.9,7.035,1.363,8.28,101.0699,2.029,3.274,61.81,0,109.9,13.1,2.79,207.9
"2016-04-19 00:54:00",1559559,9.77,248.6,6.431,1.265,8.98,101.0691,2.027,3.286,62.03,0,109.9,13.1,2.79,210.6
"2016-04-19 00:54:30",1559560,9.77,247,6.7,1.322,9.01,101.064,2.014,3.279,62.16,0,109.9,13.1,2.77,209.0
"2016-04-19 00:55:00",1559561,9.89,249,6.313,1.2,8.8,101.0547,1.99,3.308,62.22,0,109.9,13.1,2.75,211.0
"2016-04-19 00:55:30",1559562,9.59,249.9,6.649,1.287,8.92,101.046,1.968,3.279,62.41,0,109.9,13.1,2.73,211.9
"2016-04-19 00:56:00",1559563,9.59,250.4,6.436,1.348,8.69,101.0443,1.964,3.285,62.54,0,109.9,13.1,2.72,212.4
"2016-04-19 00:56:30",1559564,9.52,247.8,6.538,1.271,8.61,101.0469,1.97,3.263,62.63,0,109.9,13.1,2.73,209.8
"2016-04-19 00:57:00",1559565,9.65,248.8,6.58,1.232,8.44,101.0497,1.978,3.235,62.76,0,109.9,13.1,2.74,210.8
"2016-04-19 00:57:30",1559566,9.43,247.9,6.501,1.296,8.51,101.0506,1.98,3.257,62.84,0,109.9,13.1,2.74,209.9
"2016-04-19 00:58:00",1559567,9.5,247.5,6.497,1.278,8.73,101.0506,1.98,3.254,62.89,0,109.9,13.11,2.74,209.5
"2016-04-19 00:58:30",1559568,9.45,247.9,6.132,1.309,8.38,101.0463,1.969,3.247,62.95,0,109.9,13.11,2.73,209.9
"2016-04-19 00:59:00",1559569,9.58,249.1,6.732,1.279,8.45,101.0378,1.947,3.201,62.99,0,109.9,13.11,2.71,211.1
"2016-04-19 00:59:30",1559570,9.45,248,7.276,1.365,7.99,101.0328,1.934,3.191,63.09,0,109.9,13.11,2.69,210.0
"2016-04-19 01:00:00",1559571,9.12,246.4,7.36,1.327,8.2,101.0254,1.916,3.185,63.19,0,109.9,13.11,2.67,208.4
"2016-04-19 01:00:30",1559572,9.02,246.4,6.859,1.294,7.875,101.0175,1.895,3.172,63.28,0,109.9,13.11,2.65,208.4
"2016-04-19 01:01:00",1559573,9.49,246.5,7.02,1.273,8.08,101.017,1.894,3.178,63.4,0,109.9,13.11,2.65,208.5
"2016-04-19 01:01:30",1559574,9.07,246.1,7.442,1.358,7.734,101.017,1.894,3.081,63.44,0,109.9,13.11,2.65,208.1
"2016-04-19 01:02:00",1559575,8.94,245.5,7.791,1.618,7.043,101.017,1.894,3.136,63.59,0,109.9,13.11,2.65,207.5
"2016-04-19 01:02:30",1559576,8.64,245.4,7.239,1.347,6.57,101.015,1.889,3.01,63.51,0,109.9,13.11,2.65,207.4
"2016-04-19 01:03:00",1559577,8.89,246.9,7.3,1.425,7.988,101.0082,1.872,3.111,63.62,0,109.9,13.11,2.63,208.9
"2016-04-19 01:03:30",1559578,9.3,246.1,6.926,1.338,8.5,101.0011,1.854,3.162,63.62,0,109.9,13.12,2.61,208.1
"2016-04-19 01:04:00",1559579,9.51,246.2,6.309,1.331,8.87,101.0006,1.852,3.157,63.46,0,109.9,13.12,2.61,208.2
"2016-04-19 01:04:30",1559580,9.72,247.2,6.57,1.237,8.63,101.0004,1.852,3.118,63.26,0,109.9,13.12,2.61,209.2
"2016-04-19 01:05:00",1559581,9.07,247,6.585,1.298,8.72,100.993,1.833,3.12,63.31,0,109.9,13.12,2.59,209.0
"2016-04-19 01:05:30",1559582,9.37,250.8,6.102,1.228,8.45,100.9976,1.845,3.153,63.39,0,109.9,13.12,2.60,212.8
"2016-04-19 01:06:00",1559583,9.24,248.3,6.428,1.308,8.51,101.001,1.853,3.122,63.39,0,109.9,13.12,2.61,210.3
"2016-04-19 01:06:30",1559584,9.25,248.9,6.749,1.336,7.877,100.9985,1.847,3.109,63.34,0,109.9,13.12,2.61,210.9
"2016-04-19 01:07:00",1559585,9.26,247.8,7.022,1.23,8.28,100.992,1.83,3.087,63.32,0,109.9,13.12,2.59,209.8
"2016-04-19 01:07:30",1559586,9.38,247.2,6.882,1.199,8.15,100.9884,1.821,3.087,63.21,0,109.9,13.12,2.58,209.2
"2016-04-19 01:08:00",1559587,9.08,248.3,6.633,1.387,8.41,100.9799,1.8,3.076,63.12,0,109.9,13.11,2.56,210.3
"2016-04-19 01:08:30",1559588,9.24,245.7,7.34,1.365,7.84,100.9802,1.8,3.033,63.06,0,109.9,13.12,2.56,207.7
"2016-04-19 01:09:00",1559589,9.3,244,6.944,1.362,7.766,100.9817,1.804,3.029,63.05,0,109.9,13.11,2.56,206.0
"2016-04-19 01:09:30",1559590,9.3,244.2,6.846,1.258,8.45,100.9834,1.808,3.04,63.14,0,109.9,13.11,2.57,206.2
"2016-04-19 01:10:00",1559591,9.37,246.4,6.197,1.298,8.22,100.9817,1.804,3.065,63.16,0,109.9,13.11,2.56,208.4
"2016-04-19 01:10:30",1559592,9.59,243.9,6.584,1.253,8.13,100.9738,1.784,3.057,63.24,0,109.9,13.11,2.54,205.9
"2016-04-19 01:11:00",1559593,9.5,243.5,6.335,1.201,8.07,100.9659,1.764,2.981,63.33,0,109.9,13.11,2.52,205.5
"2016-04-19 01:11:30",1559594,9.04,244,6.709,1.266,8.03,100.9622,1.754,3.015,63.35,0,109.9,13.11,2.51,206.0
"2016-04-19 01:12:00",1559595,8.88,244.5,6.406,1.321,8.37,100.9568,1.741,3.033,63.37,0,109.9,13.11,2.50,206.5
"2016-04-19 01:12:30",1559596,9.09,245.5,6.392,1.215,8.03,100.9495,1.722,3.011,63.28,0,109.9,13.11,2.48,207.5
"2016-04-19 01:13:00",1559597,8.93,244.8,6.29,1.288,8.11,100.9495,1.722,2.995,63.24,0,109.9,13.11,2.48,206.8
"2016-04-19 01:13:30",1559598,8.73,242.9,6.892,1.304,7.956,100.9489,1.72,2.985,63.27,0,109.9,13.12,2.48,204.9
"2016-04-19 01:14:00",1559599,8.92,245,6.713,1.251,8.07,100.9435,1.707,2.971,63.18,0,109.9,13.12,2.46,207.0
"2016-04-19 01:14:30",1559600,8.67,244,6.887,1.339,8.38,100.9331,1.68,2.953,63.17,0,109.9,13.12,2.44,206.0
"2016-04-19 01:15:00",1559601,8.41,244.6,6.846,1.34,8.34,100.9303,1.673,2.95,63.12,0,109.9,13.12,2.43,206.6
"2016-04-19 01:15:30",1559602,8.77,245.1,6.124,1.311,8.32,100.9167,1.638,2.961,63.01,0,109.9,13.12,2.40,207.1
"2016-04-19 01:16:00",1559603,8.83,245.8,6.248,1.194,8.39,100.9156,1.635,2.969,63.1,0,109.9,13.12,2.39,207.8
"2016-04-19 01:16:30",1559604,8.71,243.1,6.763,1.306,7.854,100.9156,1.635,2.922,62.99,0,109.8,13.12,2.39,205.1
"2016-04-19 01:17:00",1559605,8.7,246.1,6.686,1.223,7.994,100.9156,1.635,2.903,62.88,0,109.8,13.12,2.39,208.1
"2016-04-19 01:17:30",1559606,8.45,245.5,6.857,1.376,7.87,100.9156,1.635,2.906,62.83,0,109.9,13.13,2.39,207.5
"2016-04-19 01:18:00",1559607,8.19,246.3,6.76,1.398,7.943,100.9142,1.632,2.855,62.75,0,109.9,13.13,2.39,208.3
"2016-04-19 01:18:30",1559608,7.776,240.7,6.948,1.391,6.228,100.9088,1.618,2.7,62.58,0,109.9,13.13,2.38,202.7
"2016-04-19 01:19:00",1559609,7.855,241.9,6.683,1.412,6.877,100.9043,1.607,2.82,62.67,0,109.9,13.13,2.36,203.9
"2016-04-19 01:19:30",1559610,7.787,243.2,7.247,1.36,7.074,100.9,1.596,2.79,62.62,0,109.9,13.13,2.35,205.2
"2016-04-19 01:20:00",1559611,8.53,247.7,6.794,1.348,8.09,100.8986,1.592,2.833,62.71,0,109.9,13.13,2.35,209.7
"2016-04-19 01:20:30",1559612,8.39,246.9,6.837,1.377,8.3,100.8955,1.584,2.841,62.79,0,109.9,13.13,2.34,208.9
"2016-04-19 01:21:00",1559613,8.4,247.5,6.553,1.385,8.39,100.8873,1.563,2.87,62.83,0,109.9,13.13,2.32,209.5
"2016-04-19 01:21:30",1559614,8.61,247.1,7.017,1.253,8.7,100.8825,1.551,2.853,62.81,0,109.9,13.13,2.31,209.1
"2016-04-19 01:22:00",1559615,8.54,248.4,6.325,1.298,8.52,100.8828,1.552,2.881,62.8,0,109.8,13.13,2.31,210.4
"2016-04-19 01:22:30",1559616,8.62,248.2,6.129,1.256,8.27,100.8831,1.552,2.858,62.77,0,109.9,13.13,2.31,210.2
"2016-04-19 01:23:00",1559617,8.58,248.1,6.465,1.227,8.31,100.8868,1.562,2.831,62.8,0,109.8,13.13,2.32,210.1
"2016-04-19 01:23:30",1559618,8.57,248.6,6.749,1.254,8.06,100.8908,1.572,2.827,62.86,0,109.8,13.13,2.33,210.6
"2016-04-19 01:24:00",1559619,8.46,248,6.792,1.298,8.16,100.8925,1.577,2.847,62.87,0,109.8,13.13,2.33,210.0
"2016-04-19 01:24:30",1559620,8.29,249.1,6.899,1.363,7.656,100.8916,1.574,2.831,62.85,0,109.8,13.13,2.33,211.1
"2016-04-19 01:25:00",1559621,8.23,247.6,7.289,1.375,7.276,100.8956,1.585,2.819,62.81,0,109.8,13.13,2.34,209.6
"2016-04-19 01:25:30",1559622,7.257,244,6.843,1.167,5.445,100.8996,1.595,2.691,62.66,0,109.8,13.13,2.35,206.0
"2016-04-19 01:26:00",1559623,8.17,247.1,7.383,1.393,7.239,100.9033,1.604,2.74,62.66,0,109.8,13.13,2.36,209.1
"2016-04-19 01:26:30",1559624,8.36,247.6,7.194,1.359,7.582,100.9033,1.604,2.804,62.65,0,109.8,13.13,2.36,209.6
"2016-04-19 01:27:00",1559625,8.45,248.2,7.284,1.361,7.931,100.9025,1.602,2.802,62.58,0,109.8,13.13,2.36,210.2
"2016-04-19 01:27:30",1559626,8.32,249.5,7.189,1.356,8.41,100.9045,1.607,2.797,62.55,0,109.8,13.13,2.36,211.5
"2016-04-19 01:28:00",1559627,8.17,252.9,6.737,1.306,8.57,100.9059,1.611,2.857,62.53,0,109.8,13.13,2.37,214.9
"2016-04-19 01:28:30",1559628,8.42,251.7,6.844,1.329,8.88,100.9073,1.614,2.843,62.39,0,109.8,13.13,2.37,213.7
"2016-04-19 01:29:00",1559629,8.41,250.2,6.669,1.301,8.59,100.9067,1.613,2.842,62.37,0,109.8,13.13,2.37,212.2
"2016-04-19 01:29:30",1559630,8.51,251.5,6.414,1.318,8.28,100.9082,1.617,2.848,62.43,0,109.8,13.13,2.37,213.5
"2016-04-19 01:30:00",1559631,8.87,249.4,6.544,1.26,8.21,100.9099,1.621,2.867,62.47,0,109.9,13.13,2.38,211.4
"2016-04-19 01:30:30",1559632,8.56,251.7,6.946,1.336,8.33,100.9107,1.623,2.871,62.52,0,109.8,13.13,2.38,213.7
"2016-04-19 01:31:00",1559633,8.35,249.4,6.998,1.396,7.744,100.9119,1.626,2.805,62.39,0,109.8,13.14,2.38,211.4
"2016-04-19 01:31:30",1559634,7.984,248.2,7.239,1.398,7.217,100.9133,1.63,2.833,62.44,0,109.8,13.14,2.39,210.2
"2016-04-19 01:32:00",1559635,6.788,245,5.881,1.155,5.613,100.9156,1.635,2.688,62.23,0,109.8,13.14,2.39,207.0
"2016-04-19 01:32:30",1559636,7.542,247.4,7.795,1.384,6.695,100.9153,1.635,2.685,62.2,0,109.8,13.14,2.39,209.4
"2016-04-19 01:33:00",1559637,8.01,251,7.009,1.358,7.83,100.9159,1.636,2.863,62.49,0,109.8,13.14,2.39,213.0
"2016-04-19 01:33:30",1559638,7.714,251.9,7.092,1.334,8.26,100.9156,1.635,2.825,62.51,0,109.8,13.14,2.39,213.9
"2016-04-19 01:34:00",1559639,7.598,252.4,6.828,1.335,8.43,100.9159,1.636,2.822,62.48,0,109.8,13.14,2.39,214.4
"2016-04-19 01:34:30",1559640,8.2,252.3,6.741,1.308,8.61,100.9159,1.636,2.851,62.54,0,109.8,13.14,2.39,214.3
"2016-04-19 01:35:00",1559641,8.06,251.3,6.6,1.346,8.38,100.9159,1.636,2.871,62.61,0,109.8,13.14,2.39,213.3
"2016-04-19 01:35:30",1559642,8.13,254.8,6.161,1.204,8.59,100.9159,1.636,2.886,62.69,0,109.8,13.14,2.39,216.8
"2016-04-19 01:36:00",1559643,8.1,253.9,6.58,1.203,8.24,100.9159,1.636,2.883,62.72,0,109.8,13.14,2.39,215.9
"2016-04-19 01:36:30",1559644,7.85,252.8,6.827,1.347,8.39,100.9159,1.636,2.867,62.77,0,109.8,13.14,2.39,214.8
"2016-04-19 01:37:00",1559645,7.976,252.3,7.134,1.324,7.987,100.9159,1.636,2.86,62.78,0,109.8,13.14,2.39,214.3
"2016-04-19 01:37:30",1559646,6.915,247.8,6.351,1.326,6.084,100.9159,1.636,2.749,62.68,0,109.8,13.14,2.39,209.8
"2016-04-19 01:38:00",1559647,6.573,245.2,5.268,0.971,4.845,100.9159,1.636,2.591,62.47,0,109.8,13.14,2.39,207.2
"2016-04-19 01:38:30",1559648,7.069,247.7,7.51,1.338,6.501,100.9159,1.636,2.816,62.65,0,109.8,13.14,2.39,209.7
"2016-04-19 01:39:00",1559649,8.19,254.5,6.534,1.234,8.5,100.9159,1.636,2.875,62.67,0,109.8,13.15,2.39,216.5
"2016-04-19 01:39:30",1559650,7.823,254.1,6.764,1.291,8.62,100.9159,1.636,2.875,62.57,0,109.8,13.15,2.39,216.1
"2016-04-19 01:40:00",1559651,7.396,252.4,7.66,1.455,8.15,100.9159,1.636,2.848,62.52,0,109.8,13.15,2.39,214.4
"2016-04-19 01:40:30",1559652,8.26,254.6,7.219,1.237,8.1,100.9159,1.636,2.888,62.46,0,109.8,13.15,2.39,216.6
"2016-04-19 01:41:00",1559653,7.764,253.5,7.09,1.322,8.4,100.9159,1.636,2.888,62.42,0,109.8,13.15,2.39,215.5
"2016-04-19 01:41:30",1559654,6.425,249.1,5.808,1.262,6.218,100.9159,1.636,2.76,62.23,0,109.8,13.15,2.39,211.1
"2016-04-19 01:42:00",1559655,6.238,250.5,6.565,1.312,6.197,100.9159,1.636,2.704,62.04,0,109.8,13.15,2.39,212.5
"2016-04-19 01:42:30",1559656,7.402,255.3,7.106,1.324,8.3,100.9159,1.636,2.875,62.1,0,109.8,13.14,2.39,217.3
"2016-04-19 01:43:00",1559657,6.994,256.7,7.135,1.399,8.45,100.9159,1.636,2.886,62.04,0,109.8,13.14,2.39,218.7
"2016-04-19 01:43:30",1559658,7.425,257.3,6.98,1.326,8.67,100.9162,1.637,2.856,61.95,0,109.8,13.14,2.39,219.3
"2016-04-19 01:44:00",1559659,7.642,257,6.5,1.273,8.4,100.9162,1.637,2.913,61.94,0,109.8,13.14,2.39,219.0
"2016-04-19 01:44:30",1559660,7.715,258.3,6.443,1.219,8.18,100.9162,1.637,2.898,61.87,0,109.8,13.14,2.39,220.3
"2016-04-19 01:45:00",1559661,7.387,259.1,6.746,1.296,8.42,100.9167,1.638,2.903,61.79,0,109.8,13.14,2.40,221.1
"2016-04-19 01:45:30",1559662,6.306,252,7.267,1.259,5.634,100.9167,1.638,2.779,61.59,0,109.8,13.14,2.40,214.0
"2016-04-19 01:46:00",1559663,5.572,248.6,1.657,0.12,4.405,100.9184,1.643,2.636,61.4,0,109.8,13.19,2.40,210.6
"2016-04-19 01:46:30",1559664,7.062,257.9,7.377,1.431,7.514,100.9196,1.646,2.797,61.44,0,109.8,13.14,2.40,219.9
"2016-04-19 01:47:00",1559665,7.451,259.7,7.087,1.34,8.83,100.9202,1.647,2.925,61.5,0,109.8,13.14,2.41,221.7
"2016-04-19 01:47:30",1559666,7.503,258.3,6.886,1.302,9.12,100.9199,1.646,2.919,61.46,0,109.8,13.15,2.40,220.3
"2016-04-19 01:48:00",1559667,7.52,259.7,6.273,1.397,9.07,100.9216,1.651,2.954,61.45,0,109.8,13.15,2.41,221.7
"2016-04-19 01:48:30",1559668,7.747,260.8,6.303,1.211,8.57,100.9241,1.657,2.954,61.39,0,109.8,13.15,2.41,222.8
"2016-04-19 01:49:00",1559669,7.632,259.2,6.459,1.312,7.906,100.9233,1.655,2.95,61.37,0,109.8,13.15,2.41,221.2